Location: Namasale
(1.5000°N, 32.6167°E)
Time: 09:42:02
(UTC+00:00)

Courier 1B - Pass Details

Date: 26 April 2021
Orbit: 962 x 1209 km, 28.3° (Epoch: 15 May)

Event Time Altitude Azimuth Distance (km) Brightness Sun altitude
Rises 17:52:04 0° 267° (W) 3,680 11.5 -29.8°
Reaches altitude 10° 17:55:28 10° 250° (WSW) 2,765 10.5 -30.6°
Maximum altitude 18:00:10 20° 205° (SSW) 2,185 9.4 -31.7°
Enters shadow 18:00:56 19° 197° (SSW) 2,213 9.3 -31.9°
Drops below altitude 10° 18:05:04 10° 161° (SSE) 2,885 - -32.9°
Sets 18:08:44 0° 144° (SE) 3,892 - -33.8°
